,,PA_Meas_PMT16A,,PR_Meas_QMR101_102,,RH_Meas_QMH101,,SR_Meas_QMS101,,TA_Meas_QMH101,,GenWind,,GenWind,
time,status,PA,status,PR,status,RH,status,SR,status,TA,status,DirAvg,status,SpdAvg,
2010-05-20, 00:00:04,VALID,917.278,VALID,0,VALID,88.5079,VALID,0,VALID,21.1071,VALID,142,VALID,1.17891,
2010-05-20, 00:01:04,VALID,917.298,VALID,0,VALID,88.5536,VALID,0,VALID,21.1266,VALID,142,VALID,1.41602,
2010-05-20, 00:02:04,VALID,917.268,VALID,0,VALID,88.5688,VALID,0,VALID,21.1071,VALID,142,VALID,1.15352,
2010-05-20, 00:03:04,VALID,917.279,VALID,0,VALID,88.4774,VALID,0,VALID,21.1055,VALID,153,VALID,1.17188,
2010-05-20, 00:04:04,VALID,917.279,VALID,0,VALID,88.5002,VALID,0,VALID,21.1266,VALID,152,VALID,0.914453,
2010-05-20, 00:05:04,VALID,917.289,VALID,0,VALID,88.1724,VALID,0,VALID,21.086,VALID,115,VALID,1.12656,
2010-05-20, 00:06:04,VALID,917.245,VALID,0,VALID,88.2182,VALID,0,VALID,21.1266,VALID,118,VALID,0.928125,
2010-05-20, 00:07:04,VALID,917.233,VALID,0,VALID,88.363,VALID,0,VALID,21.1461,VALID,117,VALID,0.982813,
2010-05-20, 00:08:04,VALID,917.235,VALID,0,VALID,88.2639,VALID,0,VALID,21.1461,VALID,113,VALID,1.81094,
2010-05-20, 00:09:04,VALID,917.199,VALID,0,VALID,88.7747,VALID,0,VALID,21.1055,VALID,113,VALID,0.850781,
2010-05-20, 00:10:04,VALID,917.197,VALID,0,VALID,88.4469,VALID,0,VALID,21.086,VALID,113,VALID,0.952734,
2010-05-20, 00:11:04,VALID,917.184,VALID,0,VALID,88.2868,VALID,0,VALID,21.0665,VALID,115,VALID,1.38086,
2010-05-20, 00:12:04,VALID,917.183,VALID,0,VALID,88.4011,VALID,0,VALID,21.0665,VALID,115,VALID,0.933984,
2010-05-20, 00:13:04,VALID,917.192,VALID,0,VALID,88.3935,VALID,0,VALID,21.0876,VALID,115,VALID,0.73125,
2010-05-20, 00:14:04,VALID,917.176,VALID,0,VALID,88.1343,VALID,0,VALID,21.086,VALID,115,VALID,1.2,
2010-05-20, 00:15:04,VALID,917.24,VALID,0,VALID,88.0047,VALID,0,VALID,21.086,VALID,134,VALID,0.497656,
2010-05-20, 00:16:04,VALID,917.212,VALID,0,VALID,88.2563,VALID,0,VALID,21.1055,VALID,134,VALID,0.841016,
2010-05-20, 00:17:04,VALID,917.208,VALID,0,VALID,88.3554,VALID,0,VALID,21.1055,VALID,134,VALID,0.521484,
2010-05-20, 00:18:04,VALID,917.188,VALID,0,VALID,87.7836,VALID,0,VALID,21.1055,VALID,134,VALID,0.634766,
2010-05-20, 00:19:04,VALID,917.173,VALID,0,VALID,87.7226,VALID,0,VALID,21.1055,VALID,134,VALID,0.842578,
2010-05-20, 00:20:04,VALID,917.196,VALID,0,VALID,87.7379,VALID,0.107441,VALID,21.125,VALID,134,VALID,0.675,
2010-05-20, 00:21:04,VALID,917.204,VALID,0,VALID,87.7913,VALID,0,VALID,21.125,VALID,134,VALID,0.307813,
2010-05-20, 00:22:04,VALID,917.182,VALID,0,VALID,87.5397,VALID,0.107441,VALID,21.125,VALID,135,VALID,0.198437,
2010-05-20, 00:23:04,VALID,917.189,VALID,0,VALID,87.7836,VALID,0,VALID,21.125,VALID,134,VALID,0.311328,
2010-05-20, 00:24:04,VALID,917.172,VALID,0,VALID,87.8599,VALID,0.107441,VALID,21.1445,VALID,134,VALID,0.0503906,
2010-05-20, 00:25:04,VALID,917.167,VALID,0,VALID,87.2576,VALID,0.107441,VALID,21.164,VALID,134,VALID,0.0402344,
2010-05-20, 00:26:04,VALID,917.176,VALID,0,VALID,87.3262,VALID,0,VALID,21.1836,VALID,134,VALID,0.275391,
2010-05-20, 00:27:04,VALID,917.124,VALID,0,VALID,87.4177,VALID,0,VALID,21.1836,VALID,134,VALID,0.505859,
2010-05-20, 00:28:04,VALID,917.155,VALID,0,VALID,86.7926,VALID,0,VALID,21.2031,VALID,134,VALID,0.774219,
2010-05-20, 00:29:04,VALID,917.134,VALID,0,VALID,87.1128,VALID,0,VALID,21.2226,VALID,134,VALID,0.380859,
2010-05-20, 00:30:04,VALID,917.132,VALID,0,VALID,86.8307,VALID,0,VALID,21.2031,VALID,134,VALID,0.422266,
2010-05-20, 00:31:04,VALID,917.108,VALID,0,VALID,87.2271,VALID,0,VALID,21.2242,VALID,134,VALID,0.0632813,
2010-05-20, 00:32:04,VALID,917.071,VALID,0,VALID,87.2424,VALID,0,VALID,21.2047,VALID,134,VALID,0.366797,
2010-05-20, 00:33:04,VALID,917.062,VALID,0,VALID,88.0352,VALID,0,VALID,21.2031,VALID,134,VALID,0.0296875,
2010-05-20, 00:34:04,VALID,917.053,VALID,0,VALID,87.2576,VALID,0,VALID,21.2437,VALID,134,VALID,0.505078,
2010-05-20, 00:35:04,VALID,917.055,VALID,0,VALID,87.311,VALID,0,VALID,21.2031,VALID,134,VALID,0.733203,
2010-05-20, 00:36:04,VALID,917.002,VALID,0,VALID,87.128,VALID,0,VALID,21.2047,VALID,134,VALID,0.467187,
2010-05-20, 00:37:04,VALID,916.997,VALID,0,VALID,87.6845,VALID,0,VALID,21.1445,VALID,134,VALID,0.597266,
2010-05-20, 00:38:04,VALID,916.996,VALID,0,VALID,88.0352,VALID,0,VALID,21.086,VALID,134,VALID,0.890234,
2010-05-20, 00:39:04,VALID,916.98,VALID,0,VALID,88.3859,VALID,0,VALID,21.0275,VALID,134,VALID,0.554297,
2010-05-20, 00:40:04,VALID,916.973,VALID,0,VALID,87.6693,VALID,0,VALID,20.9885,VALID,134,VALID,1.19062,
2010-05-20, 00:41:04,VALID,916.978,VALID,0,VALID,88.0047,VALID,0,VALID,21.008,VALID,134,VALID,0.767187,
2010-05-20, 00:42:04,VALID,916.977,VALID,0,VALID,88.7366,VALID,0,VALID,21.0291,VALID,134,VALID,0.0328125,
2010-05-20, 00:43:04,VALID,916.954,VALID,0,VALID,88.2792,VALID,0,VALID,20.969,VALID,134,VALID,0.607031,
2010-05-20, 00:44:04,VALID,916.951,VALID,0,VALID,88.1572,VALID,0,VALID,20.93,VALID,135,VALID,0.838672,
2010-05-20, 00:45:04,VALID,916.966,VALID,0,VALID,88.1953,VALID,0,VALID,20.93,VALID,134,VALID,0.572656,
2010-05-20, 00:46:04,VALID,916.942,VALID,0,VALID,88.3097,VALID,0,VALID,20.912,VALID,134,VALID,0.360938,
2010-05-20, 00:47:04,VALID,916.946,VALID,0,VALID,87.9666,VALID,0,VALID,20.891,VALID,134,VALID,0.559766,
2010-05-20, 00:48:04,VALID,916.918,VALID,0,VALID,88.302,VALID,0,VALID,20.9316,VALID,134,VALID,0.558594,
2010-05-20, 00:49:04,VALID,916.915,VALID,0,VALID,89.1711,VALID,0,VALID,20.8925,VALID,134,VALID,0.542969,
2010-05-20, 00:50:04,VALID,916.895,VALID,0,VALID,89.2702,VALID,0,VALID,20.8535,VALID,134,VALID,0.674219,
2010-05-20, 00:51:04,VALID,916.886,VALID,0,VALID,89.415,VALID,0,VALID,20.795,VALID,134,VALID,0.354688,
2010-05-20, 00:52:04,VALID,916.915,VALID,0,VALID,89.3083,VALID,0,VALID,20.7755,VALID,134,VALID,0.425391,
2010-05-20, 00:53:04,VALID,916.892,VALID,0,VALID,89.1101,VALID,0,VALID,20.7755,VALID,134,VALID,0.366406,
2010-05-20, 00:54:04,VALID,916.924,VALID,0,VALID,89.0796,VALID,0,VALID,20.7739,VALID,134,VALID,0.325781,
2010-05-20, 00:55:04,VALID,916.929,VALID,0,VALID,88.6298,VALID,0,VALID,20.7739,VALID,134,VALID,0.951172,
2010-05-20, 00:56:04,VALID,916.931,VALID,0,VALID,88.7137,VALID,0,VALID,20.795,VALID,134,VALID,0.521875,
2010-05-20, 00:57:04,VALID,916.912,VALID,0,VALID,87.9361,VALID,0,VALID,20.7934,VALID,134,VALID,0.994141,
2010-05-20, 00:58:04,VALID,916.921,VALID,0,VALID,87.8446,VALID,0,VALID,20.8535,VALID,134,VALID,0.550781,
2010-05-20, 00:59:04,VALID,916.935,VALID,0,VALID,87.6845,VALID,0,VALID,20.8519,VALID,134,VALID,0.85,
2010-05-20, 01:00:04,VALID,916.93,VALID,0,VALID,86.9756,VALID,0,VALID,20.912,VALID,132,VALID,1.94648,
2010-05-20, 01:01:04,VALID,916.935,VALID,0,VALID,87.1204,VALID,0,VALID,20.9316,VALID,130,VALID,0.98125,
2010-05-20, 01:02:04,VALID,916.949,VALID,0,VALID,86.7545,VALID,0,VALID,20.9511,VALID,128,VALID,1.51406,
2010-05-20, 01:03:04,VALID,916.944,VALID,0,VALID,86.5715,VALID,0,VALID,20.9495,VALID,142,VALID,1.19531,
2010-05-20, 01:04:04,VALID,916.934,VALID,0,VALID,86.6554,VALID,0,VALID,20.9901,VALID,119,VALID,1.17695,
2010-05-20, 01:05:04,VALID,916.935,VALID,0,VALID,86.7926,VALID,0,VALID,20.9901,VALID,104,VALID,1.44258,
2010-05-20, 01:06:04,VALID,916.936,VALID,0,VALID,86.8002,VALID,0,VALID,20.9901,VALID,98,VALID,0.889844,
2010-05-20, 01:07:04,VALID,916.915,VALID,0,VALID,86.6249,VALID,0,VALID,20.9901,VALID,98,VALID,0.902734,
2010-05-20, 01:08:04,VALID,916.918,VALID,0,VALID,87.1661,VALID,0,VALID,20.969,VALID,98,VALID,0.718359,
2010-05-20, 01:09:04,VALID,916.893,VALID,0,VALID,87.128,VALID,0,VALID,20.9706,VALID,98,VALID,0.589453,
2010-05-20, 01:10:04,VALID,916.851,VALID,0,VALID,85.7863,VALID,0,VALID,20.969,VALID,98,VALID,1.00859,
2010-05-20, 01:11:04,VALID,916.891,VALID,0,VALID,86.5791,VALID,0,VALID,21.0096,VALID,98,VALID,1.15039,
2010-05-20, 01:12:04,VALID,916.862,VALID,0,VALID,86.1522,VALID,0,VALID,21.0291,VALID,98,VALID,0.810938,
2010-05-20, 01:13:04,VALID,916.842,VALID,0,VALID,86.3962,VALID,0,VALID,21.0096,VALID,98,VALID,1.11406,
2010-05-20, 01:14:04,VALID,916.837,VALID,0,VALID,85.8778,VALID,0,VALID,21.0096,VALID,105,VALID,1.31484,
2010-05-20, 01:15:04,VALID,916.821,VALID,0,VALID,85.832,VALID,0,VALID,20.9495,VALID,105,VALID,1.3543,
2010-05-20, 01:16:04,VALID,916.821,VALID,0,VALID,86.3504,VALID,0,VALID,20.9105,VALID,122,VALID,1.24102,
2010-05-20, 01:17:04,VALID,916.822,VALID,0,VALID,85.9388,VALID,0,VALID,20.912,VALID,128,VALID,1.81133,
2010-05-20, 01:18:04,VALID,916.827,VALID,0,VALID,86.0455,VALID,0,VALID,20.9316,VALID,131,VALID,1.42227,
2010-05-20, 01:19:04,VALID,916.807,VALID,0,VALID,85.8244,VALID,0,VALID,20.9511,VALID,116,VALID,1.68164,
2010-05-20, 01:20:04,VALID,916.836,VALID,0,VALID,85.611,VALID,0,VALID,20.9901,VALID,102,VALID,1.44102,
2010-05-20, 01:21:04,VALID,916.81,VALID,0,VALID,85.2603,VALID,0,VALID,20.9706,VALID,111,VALID,1.88867,
2010-05-20, 01:22:04,VALID,916.82,VALID,0,VALID,85.3441,VALID,0,VALID,20.9901,VALID,107,VALID,1.54844,
2010-05-20, 01:23:04,VALID,916.82,VALID,0,VALID,85.6033,VALID,0,VALID,20.9917,VALID,86,VALID,1.38242,
2010-05-20, 01:24:04,VALID,916.814,VALID,0,VALID,86.3123,VALID,0,VALID,20.9511,VALID,86,VALID,0.716797,
2010-05-20, 01:25:04,VALID,916.809,VALID,0,VALID,85.2755,VALID,0,VALID,20.9511,VALID,111,VALID,1.53008,
2010-05-20, 01:26:04,VALID,916.814,VALID,0,VALID,85.5652,VALID,0,VALID,20.9706,VALID,119,VALID,0.930859,
2010-05-20, 01:27:04,VALID,916.844,VALID,0,VALID,85.4509,VALID,0,VALID,20.9511,VALID,119,VALID,1.27461,
2010-05-20, 01:28:04,VALID,916.805,VALID,0,VALID,85.6567,VALID,0,VALID,20.9105,VALID,131,VALID,1.13281,
2010-05-20, 01:29:04,VALID,916.819,VALID,0,VALID,85.0468,VALID,0,VALID,20.9495,VALID,130,VALID,1.68828,
2010-05-20, 01:30:04,VALID,916.79,VALID,0,VALID,84.7419,VALID,0,VALID,20.9885,VALID,130,VALID,1.65547,
2010-05-20, 01:31:04,VALID,916.821,VALID,0,VALID,84.2464,VALID,0,VALID,21.008,VALID,126,VALID,2.04258,
2010-05-20, 01:32:04,VALID,916.809,VALID,0,VALID,83.6517,VALID,0,VALID,21.0681,VALID,125,VALID,1.65352,
2010-05-20, 01:33:04,VALID,916.806,VALID,0,VALID,83.0571,VALID,0,VALID,21.0665,VALID,130,VALID,2.00586,
2010-05-20, 01:34:04,VALID,916.81,VALID,0,VALID,83.4993,VALID,0,VALID,21.1055,VALID,127,VALID,1.81484,
2010-05-20, 01:35:04,VALID,916.796,VALID,0,VALID,83.9262,VALID,0,VALID,21.1266,VALID,118,VALID,1.13555,
2010-05-20, 01:36:04,VALID,916.772,VALID,0,VALID,84.0939,VALID,0,VALID,21.086,VALID,118,VALID,1.72578,
2010-05-20, 01:37:04,VALID,916.747,VALID,0,VALID,84.315,VALID,0,VALID,21.0681,VALID,145,VALID,1.54062,
2010-05-20, 01:38:04,VALID,916.726,VALID,0,VALID,84.3607,VALID,0,VALID,21.0486,VALID,125,VALID,1.6168,
2010-05-20, 01:39:04,VALID,916.734,VALID,0,VALID,84.4674,VALID,0,VALID,21.0096,VALID,135,VALID,1.72187,
2010-05-20, 01:40:04,VALID,916.712,VALID,0,VALID,84.5132,VALID,0,VALID,20.9901,VALID,134,VALID,1.79219,
2010-05-20, 01:41:04,VALID,916.707,VALID,0,VALID,84.6962,VALID,0,VALID,21.0096,VALID,132,VALID,1.82734,
2010-05-20, 01:42:04,VALID,916.695,VALID,0,VALID,84.4141,VALID,0,VALID,21.0096,VALID,130,VALID,1.13789,
2010-05-20, 01:43:04,VALID,916.663,VALID,0,VALID,83.6441,VALID,0,VALID,21.0096,VALID,135,VALID,1.58711,
2010-05-20, 01:44:04,VALID,916.701,VALID,0,VALID,82.4015,VALID,0,VALID,21.0876,VALID,130,VALID,1.87969,
2010-05-20, 01:45:04,VALID,916.676,VALID,0,VALID,82.6226,VALID,0,VALID,21.1055,VALID,116,VALID,1.3543,
2010-05-20, 01:46:04,VALID,916.663,VALID,0,VALID,82.0966,VALID,0,VALID,21.125,VALID,140,VALID,1.33086,
2010-05-20, 01:47:04,VALID,916.637,VALID,0,VALID,82.7293,VALID,0,VALID,21.164,VALID,139,VALID,1.20156,
2010-05-20, 01:48:04,VALID,916.656,VALID,0,VALID,81.3342,VALID,0,VALID,21.2437,VALID,130,VALID,2.2957,
2010-05-20, 01:49:04,VALID,916.624,VALID,0,VALID,81.4562,VALID,0,VALID,21.2827,VALID,133,VALID,1.51992,
2010-05-20, 01:50:04,VALID,916.642,VALID,0,VALID,81.4791,VALID,0,VALID,21.3217,VALID,113,VALID,1.10352,
2010-05-20, 01:51:04,VALID,916.621,VALID,0,VALID,81.7993,VALID,0,VALID,21.3006,VALID,110,VALID,1.67656,
2010-05-20, 01:52:04,VALID,916.617,VALID,0,VALID,81.6315,VALID,0,VALID,21.2616,VALID,132,VALID,1.62266,
2010-05-20, 01:53:04,VALID,916.564,VALID,0,VALID,81.4638,VALID,0,VALID,21.2632,VALID,137,VALID,1.69766,
2010-05-20, 01:54:04,VALID,916.553,VALID,0,VALID,80.8463,VALID,0.107441,VALID,21.2811,VALID,137,VALID,1.45625,
2010-05-20, 01:55:04,VALID,916.537,VALID,0,VALID,80.2288,VALID,0,VALID,21.3217,VALID,132,VALID,1.4625,
2010-05-20, 01:56:04,VALID,916.51,VALID,0,VALID,80.7091,VALID,0,VALID,21.3006,VALID,133,VALID,1.50703,
2010-05-20, 01:57:04,VALID,916.521,VALID,0,VALID,81.3952,VALID,0,VALID,21.3022,VALID,139,VALID,0.817969,
2010-05-20, 01:58:04,VALID,916.509,VALID,0,VALID,80.5109,VALID,0,VALID,21.2811,VALID,118,VALID,0.960156,
2010-05-20, 01:59:04,VALID,916.516,VALID,0,VALID,80.5185,VALID,0,VALID,21.2827,VALID,130,VALID,1.12227,
2010-05-20, 02:00:04,VALID,916.49,VALID,0,VALID,80.2136,VALID,0,VALID,21.2827,VALID,130,VALID,1.2918,
2010-05-20, 02:01:04,VALID,916.452,VALID,0,VALID,80.7396,VALID,0,VALID,21.2811,VALID,132,VALID,1.1625,
2010-05-20, 02:02:04,VALID,916.413,VALID,0,VALID,79.9696,VALID,0,VALID,21.3217,VALID,124,VALID,2.33711,
2010-05-20, 02:03:04,VALID,916.424,VALID,0,VALID,80.2898,VALID,0,VALID,21.3217,VALID,150,VALID,0.966797,
2010-05-20, 02:04:04,VALID,916.387,VALID,0,VALID,80.4575,VALID,0,VALID,21.3608,VALID,112,VALID,0.321484,
2010-05-20, 02:05:04,VALID,916.38,VALID,0,VALID,80.8997,VALID,0,VALID,21.3396,VALID,130,VALID,0.928125,
2010-05-20, 02:06:04,VALID,916.348,VALID,0,VALID,80.6176,VALID,0,VALID,21.3201,VALID,130,VALID,1.04805,
2010-05-20, 02:07:04,VALID,916.332,VALID,0,VALID,80.854,VALID,0,VALID,21.3006,VALID,111,VALID,1.14375,
2010-05-20, 02:08:04,VALID,916.373,VALID,0,VALID,80.7167,VALID,0,VALID,21.3217,VALID,136,VALID,1.61719,
2010-05-20, 02:09:04,VALID,916.373,VALID,0,VALID,80.9302,VALID,0,VALID,21.3022,VALID,118,VALID,1.41484,
2010-05-20, 02:10:04,VALID,916.377,VALID,0,VALID,81.0369,VALID,0,VALID,21.2226,VALID,118,VALID,0.982031,
2010-05-20, 02:11:04,VALID,916.388,VALID,0,VALID,81.4638,VALID,0,VALID,21.2031,VALID,118,VALID,0.749609,
2010-05-20, 02:12:04,VALID,916.392,VALID,0,VALID,81.4333,VALID,0,VALID,21.164,VALID,147,VALID,1.23438,
2010-05-20, 02:13:04,VALID,916.388,VALID,0,VALID,81.6773,VALID,0,VALID,21.1657,VALID,157,VALID,0.821484,
2010-05-20, 02:14:04,VALID,916.383,VALID,0,VALID,82.0051,VALID,0,VALID,21.1055,VALID,145,VALID,1.06289,
2010-05-20, 02:15:04,VALID,916.382,VALID,0,VALID,82.0508,VALID,0,VALID,21.047,VALID,145,VALID,1.04688,
2010-05-20, 02:16:04,VALID,916.4,VALID,0,VALID,82.7217,VALID,0,VALID,21.0681,VALID,157,VALID,1.06914,
2010-05-20, 02:17:04,VALID,916.383,VALID,0,VALID,83.1029,VALID,0,VALID,21.008,VALID,157,VALID,1.07617,
2010-05-20, 02:18:04,VALID,916.364,VALID,0,VALID,83.2858,VALID,0,VALID,20.969,VALID,157,VALID,0.567578,
2010-05-20, 02:19:04,VALID,916.36,VALID,0,VALID,83.6594,VALID,0,VALID,20.9495,VALID,132,VALID,0.95625,
2010-05-20, 02:20:04,VALID,916.372,VALID,0,VALID,83.9186,VALID,0,VALID,20.912,VALID,132,VALID,0.809375,
2010-05-20, 02:21:04,VALID,916.335,VALID,0,VALID,83.7585,VALID,0,VALID,20.8519,VALID,158,VALID,1.10508,
2010-05-20, 02:22:04,VALID,916.322,VALID,0,VALID,84.1168,VALID,0,VALID,20.8519,VALID,116,VALID,0.945313,
2010-05-20, 02:23:04,VALID,916.289,VALID,0,VALID,83.6975,VALID,0,VALID,20.8129,VALID,116,VALID,1.45703,
2010-05-20, 02:24:04,VALID,916.324,VALID,0,VALID,83.9567,VALID,0,VALID,20.7934,VALID,116,VALID,1.13945,
2010-05-20, 02:25:04,VALID,916.299,VALID,0,VALID,84.2845,VALID,0,VALID,20.7739,VALID,116,VALID,1.31914,
2010-05-20, 02:26:04,VALID,916.299,VALID,0,VALID,83.6136,VALID,0,VALID,20.7739,VALID,116,VALID,1.04922,
2010-05-20, 02:27:04,VALID,916.286,VALID,0,VALID,83.7051,VALID,0,VALID,20.7755,VALID,116,VALID,0.997266,
2010-05-20, 02:28:04,VALID,916.291,VALID,0,VALID,83.4078,VALID,0,VALID,20.7544,VALID,116,VALID,1.12227,
2010-05-20, 02:29:04,VALID,916.256,VALID,0,VALID,83.3849,VALID,0,VALID,20.7934,VALID,124,VALID,1.59961,
2010-05-20, 02:30:04,VALID,916.256,VALID,0,VALID,83.6594,VALID,0,VALID,20.7739,VALID,150,VALID,1.27344,
2010-05-20, 02:31:04,VALID,916.207,VALID,0,VALID,83.6365,VALID,0,VALID,20.8145,VALID,135,VALID,1.425,
2010-05-20, 02:32:04,VALID,916.217,VALID,0,VALID,83.202,VALID,0,VALID,20.7934,VALID,133,VALID,1.79805,
2010-05-20, 02:33:04,VALID,916.186,VALID,0,VALID,83.4383,VALID,0,VALID,20.7934,VALID,149,VALID,1.40039,
2010-05-20, 02:34:04,VALID,916.197,VALID,0,VALID,83.9414,VALID,0,VALID,20.7934,VALID,149,VALID,0.9625,
2010-05-20, 02:35:04,VALID,916.199,VALID,0,VALID,83.4993,VALID,0,VALID,20.7739,VALID,155,VALID,0.735547,
2010-05-20, 02:36:04,VALID,916.16,VALID,0,VALID,83.5298,VALID,0,VALID,20.7544,VALID,133,VALID,1.41484,
2010-05-20, 02:37:04,VALID,916.165,VALID,0,VALID,83.5145,VALID,0,VALID,20.756,VALID,138,VALID,1.13633,
2010-05-20, 02:38:04,VALID,916.173,VALID,0,VALID,83.9109,VALID,0,VALID,20.756,VALID,145,VALID,1.14023,
2010-05-20, 02:39:04,VALID,916.155,VALID,0,VALID,84.1396,VALID,0,VALID,20.717,VALID,144,VALID,1.10352,
2010-05-20, 02:40:04,VALID,916.11,VALID,0,VALID,84.1778,VALID,0,VALID,20.6585,VALID,144,VALID,1.12852,
2010-05-20, 02:41:04,VALID,916.096,VALID,0,VALID,84.4217,VALID,0,VALID,20.6179,VALID,144,VALID,0.739453,
2010-05-20, 02:42:04,VALID,916.103,VALID,0,VALID,83.8652,VALID,0,VALID,20.6179,VALID,143,VALID,1.0043,
2010-05-20, 02:43:04,VALID,916.095,VALID,0,VALID,82.8589,VALID,0,VALID,20.6179,VALID,142,VALID,1.18711,
2010-05-20, 02:44:04,VALID,916.069,VALID,0,VALID,82.7369,VALID,0,VALID,20.6569,VALID,148,VALID,1.2543,
2010-05-20, 02:45:04,VALID,916.064,VALID,0,VALID,83.1029,VALID,0,VALID,20.6959,VALID,149,VALID,1.08984,
2010-05-20, 02:46:04,VALID,916.111,VALID,0,VALID,83.3239,VALID,0,VALID,20.6975,VALID,149,VALID,1.08594,
2010-05-20, 02:47:04,VALID,916.086,VALID,0,VALID,84.0405,VALID,0,VALID,20.678,VALID,149,VALID,0.835156,
2010-05-20, 02:48:04,VALID,916.084,VALID,0,VALID,83.8576,VALID,0,VALID,20.639,VALID,149,VALID,1.41367,
2010-05-20, 02:49:04,VALID,916.079,VALID,0,VALID,83.8881,VALID,0,VALID,20.6179,VALID,149,VALID,1.29766,
2010-05-20, 02:50:04,VALID,916.097,VALID,0,VALID,84.254,VALID,0,VALID,20.6194,VALID,149,VALID,0.954297,
2010-05-20, 02:51:04,VALID,916.072,VALID,0,VALID,83.2096,VALID,0,VALID,20.639,VALID,146,VALID,1.41953,
2010-05-20, 02:52:04,VALID,916.033,VALID,0,VALID,83.0419,VALID,0,VALID,20.6585,VALID,123,VALID,1.56914,
2010-05-20, 02:53:04,VALID,916.008,VALID,0,VALID,82.9123,VALID,0,VALID,20.678,VALID,114,VALID,1.09258,
2010-05-20, 02:54:04,VALID,915.976,VALID,0,VALID,82.8894,VALID,0,VALID,20.678,VALID,138,VALID,1.30664,
2010-05-20, 02:55:04,VALID,915.949,VALID,0,VALID,83.141,VALID,0,VALID,20.6569,VALID,121,VALID,1.15117,
2010-05-20, 02:56:04,VALID,915.929,VALID,0,VALID,83.1257,VALID,0,VALID,20.639,VALID,121,VALID,0.783984,
2010-05-20, 02:57:04,VALID,915.901,VALID,0,VALID,83.4154,VALID,0,VALID,20.6194,VALID,121,VALID,0.599609,
2010-05-20, 02:58:04,VALID,915.913,VALID,0,VALID,83.4612,VALID,0.107441,VALID,20.5999,VALID,121,VALID,0.471875,
2010-05-20, 02:59:04,VALID,915.936,VALID,0,VALID,83.3621,VALID,0,VALID,20.5999,VALID,121,VALID,0.710156,
2010-05-20, 03:00:04,VALID,915.967,VALID,0,VALID,82.3024,VALID,0,VALID,20.5999,VALID,121,VALID,1.12148,
2010-05-20, 03:01:04,VALID,915.996,VALID,0,VALID,82.5311,VALID,0,VALID,20.5984,VALID,121,VALID,0.708203,
2010-05-20, 03:02:04,VALID,915.964,VALID,0,VALID,82.5921,VALID,0,VALID,20.5984,VALID,121,VALID,0.927734,
2010-05-20, 03:03:04,VALID,915.981,VALID,0,VALID,82.7674,VALID,0.107441,VALID,20.5789,VALID,121,VALID,0.638672,
2010-05-20, 03:04:04,VALID,916.015,VALID,0,VALID,83.1562,VALID,0.107441,VALID,20.5399,VALID,121,VALID,0.784766,
2010-05-20, 03:05:04,VALID,916.045,VALID,0,VALID,82.493,VALID,0,VALID,20.5024,VALID,121,VALID,1.06484,
2010-05-20, 03:06:04,VALID,916.026,VALID,0,VALID,82.8055,VALID,0,VALID,20.4813,VALID,121,VALID,0.707812,
2010-05-20, 03:07:04,VALID,916.045,VALID,0,VALID,82.8665,VALID,0,VALID,20.4829,VALID,121,VALID,0.782422,
2010-05-20, 03:08:04,VALID,916.039,VALID,0,VALID,83.2401,VALID,0,VALID,20.4829,VALID,121,VALID,0.433594,
2010-05-20, 03:09:04,VALID,916.031,VALID,0,VALID,83.3773,VALID,0.107441,VALID,20.4439,VALID,121,VALID,0.714063,
2010-05-20, 03:10:04,VALID,916.005,VALID,0,VALID,83.8347,VALID,0,VALID,20.4244,VALID,121,VALID,0.884375,
2010-05-20, 03:11:04,VALID,916.005,VALID,0,VALID,84.6428,VALID,0,VALID,20.3854,VALID,121,VALID,0.675391,
2010-05-20, 03:12:04,VALID,916.019,VALID,0,VALID,85.0621,VALID,0.107441,VALID,20.3074,VALID,121,VALID,0.661328,
2010-05-20, 03:13:04,VALID,916.041,VALID,0,VALID,85.8854,VALID,0,VALID,20.2293,VALID,121,VALID,0.595312,
2010-05-20, 03:14:04,VALID,916.045,VALID,0,VALID,86.3276,VALID,0,VALID,20.1318,VALID,121,VALID,0.684766,
2010-05-20, 03:15:04,VALID,916.061,VALID,0,VALID,86.5486,VALID,0,VALID,20.0718,VALID,121,VALID,0.927344,
2010-05-20, 03:16:04,VALID,916.073,VALID,0,VALID,86.3809,VALID,0,VALID,20.0328,VALID,121,VALID,1.00937,
2010-05-20, 03:17:04,VALID,916.103,VALID,0,VALID,86.3276,VALID,0,VALID,20.0328,VALID,121,VALID,0.75625,
2010-05-20, 03:18:04,VALID,916.093,VALID,0,VALID,85.3899,VALID,0,VALID,20.0538,VALID,121,VALID,0.773438,
2010-05-20, 03:19:04,VALID,916.083,VALID,0,VALID,85.7482,VALID,0,VALID,20.0538,VALID,121,VALID,0.475781,
2010-05-20, 03:20:04,VALID,916.072,VALID,0,VALID,85.0545,VALID,0,VALID,20.0733,VALID,121,VALID,0.666406,
2010-05-20, 03:21:04,VALID,916.074,VALID,0,VALID,84.9553,VALID,0,VALID,20.1318,VALID,121,VALID,0.503516,
2010-05-20, 03:22:04,VALID,916.062,VALID,0,VALID,84.6657,VALID,0,VALID,20.1513,VALID,121,VALID,0.463672,
2010-05-20, 03:23:04,VALID,916.04,VALID,0,VALID,84.8867,VALID,0,VALID,20.1903,VALID,121,VALID,0.741406,
2010-05-20, 03:24:04,VALID,916.051,VALID,0,VALID,84.6275,VALID,0,VALID,20.1903,VALID,121,VALID,0.463281,
2010-05-20, 03:25:04,VALID,916.038,VALID,0,VALID,84.963,VALID,0,VALID,20.1724,VALID,121,VALID,0.778906,
2010-05-20, 03:26:04,VALID,916.058,VALID,0,VALID,85.0926,VALID,0,VALID,20.1318,VALID,121,VALID,0.488672,
2010-05-20, 03:27:04,VALID,916.063,VALID,0,VALID,85.2374,VALID,0,VALID,20.0928,VALID,121,VALID,0.620703,
2010-05-20, 03:28:04,VALID,916.009,VALID,0,VALID,85.6796,VALID,0,VALID,20.0538,VALID,121,VALID,0.741406,
2010-05-20, 03:29:04,VALID,916.041,VALID,0,VALID,86.0531,VALID,0,VALID,19.9953,VALID,121,VALID,0.785156,
2010-05-20, 03:30:04,VALID,915.987,VALID,0,VALID,86.785,VALID,0,VALID,19.9563,VALID,121,VALID,0.717188,
2010-05-20, 03:31:04,VALID,916.008,VALID,0,VALID,86.4724,VALID,0,VALID,19.8783,VALID,121,VALID,0.587891,
2010-05-20, 03:32:04,VALID,915.988,VALID,0,VALID,86.3428,VALID,0.107441,VALID,19.8588,VALID,121,VALID,0.596875,
2010-05-20, 03:33:04,VALID,915.962,VALID,0,VALID,86.4648,VALID,0,VALID,19.8588,VALID,121,VALID,0.462891,
2010-05-20, 03:34:04,VALID,915.939,VALID,0,VALID,86.4572,VALID,0,VALID,19.8588,VALID,121,VALID,0.804297,
2010-05-20, 03:35:04,VALID,915.922,VALID,0,VALID,86.6706,VALID,0,VALID,19.8978,VALID,121,VALID,0.414844,
2010-05-20, 03:36:04,VALID,915.926,VALID,0,VALID,86.8231,VALID,0,VALID,19.8783,VALID,121,VALID,0.394531,
2010-05-20, 03:37:04,VALID,915.925,VALID,0,VALID,86.8002,VALID,0,VALID,19.7988,VALID,121,VALID,0.416406,
2010-05-20, 03:38:04,VALID,915.905,VALID,0,VALID,87.2043,VALID,0,VALID,19.7808,VALID,121,VALID,0.584766,
2010-05-20, 03:39:04,VALID,915.936,VALID,0,VALID,87.5778,VALID,0,VALID,19.7223,VALID,121,VALID,0.728516,
2010-05-20, 03:40:04,VALID,915.941,VALID,0,VALID,87.7226,VALID,0,VALID,19.6638,VALID,121,VALID,0.667578,
2010-05-20, 03:41:04,VALID,915.937,VALID,0,VALID,87.8904,VALID,0,VALID,19.6233,VALID,121,VALID,0.573047,
2010-05-20, 03:42:04,VALID,915.955,VALID,0,VALID,87.9056,VALID,0,VALID,19.6248,VALID,121,VALID,0.382813,
2010-05-20, 03:43:04,VALID,915.933,VALID,0,VALID,87.4711,VALID,0,VALID,19.6428,VALID,121,VALID,0.554297,
2010-05-20, 03:44:04,VALID,915.927,VALID,0,VALID,87.2576,VALID,0,VALID,19.7028,VALID,121,VALID,0.590625,